Location: Berg
(48.4333°N, 13.9167°E)
Time: 02:00:41
(UTC+00:00)

SJ-6B - Pass Details

Date: 18 September 2020
Orbit: 511 x 580 km, 97.6° (Epoch: 24 October)

Event Time Altitude Azimuth Distance (km) Brightness Sun altitude
Exits shadow 17:45:39 - 118° (ESE) 1,938 5.0 -6.7°
Reaches altitude 10° 17:46:16 10° 112° (ESE) 1,735 4.7 -6.8°
Maximum altitude 17:49:01 20° 64° (ENE) 1,243 4.2 -7.3°
Drops below altitude 10° 17:51:47 10° 17° (NNE) 1,754 5.3 -7.7°
Sets 17:54:18 0° 360° (N) 2,655 6.5 -8.1°
